This is the latest recevied weather packets stored in our database for station/object 4S6DRJ-13. If no packets are shown the sender has not sent any weather packets the latest 10 day(s).
| Time | Temp. | Humidity | Pressure | Rain* | Wind** | Luminosity | Snow |
|---|---|---|---|---|---|---|---|
| 1788232951 | 29.44° C | 77% | 1009.6 hPa | 0 mm | 2.24 m/s, 304° | 867 W/m² | - |
| 1788232889 | 29.44° C | 78% | 1009.6 hPa | 0 mm | 0.89 m/s, 288° | 348 W/m² | - |
| 1788232829 | 29.44° C | 78% | 1009.5 hPa | 0 mm | 0.89 m/s, 201° | 787 W/m² | - |
| 1788232774 | 29.44° C | 78% | 1009.4 hPa | 0 mm | 1.79 m/s, 228° | 854 W/m² | - |
| 1788232708 | 29.44° C | 78% | 1009.5 hPa | 0 mm | 0.89 m/s, 187° | 809 W/m² | - |
| 1788232646 | 29.44° C | 78% | 1009.5 hPa | 0 mm | 1.34 m/s, 203° | 218 W/m² | - |
| 1788232585 | 29.44° C | 78% | 1009.7 hPa | 0 mm | 0.45 m/s, 232° | 210 W/m² | - |
| 1788232524 | 29.44° C | 78% | 1009.4 hPa | 0 mm | 0 m/s | 703 W/m² | - |
| 1788232463 | 29.44° C | 77% | 1009.5 hPa | 0 mm | 1.79 m/s, 252° | 150 W/m² | - |
| 1788232402 | 30° C | 76% | 1009.5 hPa | 0 mm | 0.89 m/s, 308° | 125 W/m² | - |
| 1788232341 | 30° C | 76% | 1009.4 hPa | 0 mm | 1.79 m/s, 41° | 130 W/m² | - |
| 1788232280 | 30° C | 76% | 1009.4 hPa | 0 mm | 2.68 m/s, 325° | 141 W/m² | - |
| 1788232219 | 30° C | 76% | 1009.4 hPa | 0 mm | 1.79 m/s, 228° | 168 W/m² | - |
| 1788232158 | 30° C | 76% | 1009.5 hPa | 0 mm | 2.24 m/s, 238° | 225 W/m² | - |
| 1788232097 | 30° C | 76% | 1009.3 hPa | 0 mm | 1.79 m/s, 237° | 483 W/m² | - |
| 1788232036 | 29.44° C | 77% | 1009.3 hPa | 0 mm | 1.34 m/s, 269° | 825 W/m² | - |
| 1788231975 | 29.44° C | 77% | 1009.3 hPa | 0 mm | 1.79 m/s, 67° | 756 W/m² | - |
| 1788231914 | 29.44° C | 77% | 1009.4 hPa | 0 mm | 1.34 m/s, 282° | 724 W/m² | - |
| 1788231853 | 29.44° C | 77% | 1009.4 hPa | 0 mm | 1.34 m/s, 219° | 690 W/m² | - |
| 1788231801 | 29.44° C | 78% | 1009.3 hPa | 0 mm | 2.24 m/s, 165° | 655 W/m² | - |
| 1788231731 | 28.89° C | 78% | 1009.6 hPa | 0 mm | 1.79 m/s, 281° | 623 W/m² | - |
| 1788231670 | 28.89° C | 78% | 1009.4 hPa | 0 mm | 2.24 m/s, 229° | 607 W/m² | - |
| 1788231609 | 28.89° C | 78% | 1009.3 hPa | 0 mm | 2.24 m/s, 338° | 595 W/m² | - |
| 1788231548 | 28.89° C | 79% | 1009.2 hPa | 0 mm | 0.89 m/s, 197° | 547 W/m² | - |
| 1788231487 | 28.89° C | 79% | 1009.3 hPa | 0 mm | 1.79 m/s, 196° | 546 W/m² | - |
* Rain latest hour (hover to see other rain measurements)
** Current wind speed in m/s (hover to see current wind gust speed)